Weather History for Mobridge, SD

Change the Weather History Date:

Friday, November 15, 2013

  Actual Average Record
Temperature  
Mean Temperature 38 °F 32 °F  
Max Temperature 52 °F 43 °F 76 °F (1953)
Min Temperature 23 °F 22 °F -5 °F (1955)
Degree Days  
Heating Degree Days 27 33  
Month to date heating degree days 461 431  
Since 1 July heating degree days 1223 1205  
Cooling Degree Days 0 0  
Month to date cooling degree days 0 0  
Year to date cooling degree days 700 644  
Moisture  
Dew Point 29 °F    
Average Humidity 77    
Maximum Humidity 100    
Minimum Humidity 54    
Precipitation  
Precipitation 0.00 in 0.01 in 0.40 in (1958)
Month to date precipitation 0.04 0.38  
Year to date precipitation 22.92 17.33  
Snow  
Snow 0.00 in - - ()
Month to date snowfall T  
Since 1 July snowfall 1.0  
Snow Depth 0.00 in    
Sea Level Pressure  
Sea Level Pressure 29.57 in    
Wind  
Wind Speed 5 mph (SE)    
Max Wind Speed 20 mph    
Max Gust Speed 24 mph    
Visibility 10 miles    
Events      
T = Trace of Precipitation, MM = Missing Value Source: NWS Daily Summary

Daily Weather History Graph

Daily Weather History Graph

Search for Another Location

Airport:

Trip Planner

Search our weather history database for the weather conditions in past years. The results will help you decide how hot, cold, wet, or windy it might be!

Date:

Astronomy

Nov. 15, 2013 Rise Set
Actual Time 7:41 AM CST 5:10 PM CST
Civil Twilight 7:09 AM CST 5:43 PM CST
Nautical Twilight 6:33 AM CST 6:18 PM CST
Astronomical Twilight 5:58 AM CST 6:53 PM CST
Moon 4:12 PM CST (11/15) 5:34 AM CST (11/15)
Length of Visible Light 10h 34m
Length of Day
9h 29m
Waxing Gibbous, 96% of the Moon is Illuminated
Nov 15
Waxing Gibbous
Nov 17
Full
Nov 25
Last Quarter
Dec 2
New
Dec 9
First Quarter

Hourly Weather History & Observations

Time (CST) Temp. Windchill Dew Point Humidity Pressure Visibility Wind Dir Wind Speed Gust Speed Precip Events Conditions
12:52 AM 28.9 °F 23.9 °F 25.0 °F 85% 29.79 in 10.0 mi ESE 4.6 mph - N/A   Clear
1:52 AM 26.1 °F - 23.0 °F 88% 29.78 in 10.0 mi Calm Calm - N/A   Clear
2:52 AM 24.1 °F - 21.9 °F 91% 29.76 in 10.0 mi Calm Calm - N/A   Clear
3:52 AM 27.0 °F 19.5 °F 24.1 °F 89% 29.74 in 10.0 mi SE 6.9 mph - N/A   Clear
4:52 AM 30.0 °F - 26.1 °F 85% 29.73 in 10.0 mi Calm Calm - N/A   Clear
5:52 AM 24.1 °F - 23.0 °F 96% 29.74 in 10.0 mi Calm Calm - N/A   Clear
6:52 AM 28.0 °F 21.7 °F 26.1 °F 92% 29.72 in 10.0 mi East 5.8 mph - N/A   Clear
7:52 AM 26.1 °F 19.4 °F 23.0 °F 88% 29.70 in 10.0 mi East 5.8 mph - N/A   Clear
8:52 AM 30.9 °F 22.8 °F 27.0 °F 85% 29.67 in 10.0 mi East 9.2 mph - N/A   Partly Cloudy
9:52 AM 35.1 °F 28.6 °F 30.0 °F 82% 29.64 in 10.0 mi ESE 8.1 mph - N/A   Overcast
10:52 AM 43.0 °F 37.2 °F 34.0 °F 71% 29.59 in 10.0 mi SE 10.4 mph - N/A   Scattered Clouds
11:52 AM 46.0 °F 41.0 °F 32.0 °F 58% 29.53 in 10.0 mi SE 10.4 mph - N/A   Mostly Cloudy
12:52 PM 48.0 °F - 35.1 °F 61% 29.49 in 10.0 mi South 15.0 mph - N/A   Scattered Clouds
1:52 PM 52.0 °F - 36.0 °F 54% 29.46 in 10.0 mi South 16.1 mph - N/A   Clear
2:52 PM 48.9 °F - 36.0 °F 61% 29.45 in 10.0 mi SW 8.1 mph - N/A   Clear
3:52 PM 50.0 °F - 37.0 °F 61% 29.42 in 10.0 mi SW 4.6 mph - N/A   Clear
4:52 PM 45.0 °F 43.5 °F 35.1 °F 68% 29.43 in 10.0 mi WNW 3.5 mph - N/A   Clear
5:52 PM 39.0 °F 34.8 °F 32.0 °F 76% 29.44 in 10.0 mi WNW 5.8 mph - N/A   Clear
6:52 PM 36.0 °F - 32.0 °F 86% 29.43 in 10.0 mi Calm Calm - N/A   Clear
7:52 PM 30.0 °F - 28.0 °F 92% 29.44 in 10.0 mi Calm Calm - N/A   Clear
8:52 PM 28.9 °F - 28.0 °F 96% 29.44 in 10.0 mi Calm Calm - N/A   Clear
9:52 PM 28.9 °F - 28.0 °F 96% 29.43 in 10.0 mi Calm Calm - N/A   Clear
10:52 PM 30.0 °F - 28.9 °F 96% 29.41 in 10.0 mi Calm Calm - N/A   Clear
11:52 PM 30.0 °F 26.5 °F 28.0 °F 92% 29.42 in 10.0 mi SE 3.5 mph - N/A   Clear